Location: Newark
(0.0900°N, 123.8300°E)
Time: 19:44:06
(UTC+00:00)

Envisat - Visible Passes

Search period start: 18 September 2020 00:00
Search period end: 28 September 2020 00:00
Orbit: 764 x 766 km, 98.1° (Epoch: 18 September)

Date Brightness Start Highest point End Pass type
(mag) Time Alt. Az. Time Alt. Az. Time Alt. Az.
18 Sep 6.2 10:34:54 10° SW 10:37:21 14° WSW 10:39:48 10° WNW visible
19 Sep 4.7 09:55:59 10° S 10:00:41 38° WSW 10:05:23 10° NW visible
19 Sep 5.2 20:48:30 10° NE 20:52:51 29° ESE 20:57:13 10° SSE visible
21 Sep 6.0 10:22:34 10° SW 10:26:03 19° WSW 10:29:31 10° WNW visible
22 Sep 5.7 20:37:43 10° NE 20:41:32 22° ESE 20:45:21 10° SSE visible
24 Sep 5.5 10:10:35 10° SSW 10:14:43 25° WSW 10:18:50 10° NW visible
24 Sep 4.4 21:02:04 10° NNE 21:06:53 45° ESE 21:11:43 10° S visible
25 Sep 6.1 20:27:13 10° ENE 20:30:13 16° ESE 20:33:12 10° SE visible
26 Sep 6.4 10:38:11 10° SW 10:40:04 12° WSW 10:41:56 10° W visible
27 Sep 5.0 09:58:49 10° SSW 10:03:24 34° WSW 10:07:58 10° NW visible
27 Sep 5.0 20:51:03 10° NE 20:55:33 33° ESE 21:00:04 10° SSE visible
